Location: Broekland
(52.3610°N, 6.2005°E)
Time: 00:48:19
(UTC+00:00)

NOSS 3-1 (A) - Pass Details

Date: 19 May 2025
Orbit: 639 x 1568 km, 63.4° (Epoch: 20 June)

Event Time Altitude Azimuth Distance (km) Brightness Sun altitude
Exits shadow 22:37:39 - 230° (SW) 2,692 5.6 -16.7°
Reaches altitude 10° 22:38:55 10° 231° (SW) 2,198 5.1 -16.7°
Maximum altitude 22:43:53 79° 319° (NW) 834 3.2 -16.9°
Drops below altitude 10° 22:50:04 10° 46° (NE) 2,710 6.3 -17.1°
Sets 22:52:58 0° 48° (NE) 3,813 7.1 -17.2°
